sat.trackr.live / text

‹ back to catalog

STARLINK-1090

NORAD 44968 · 2020-001BG

PAYLOAD ACTIVE UNKNOWN

§ Identity

Operator
Country
US
Launch date
2020-01-07
Launch site
AFETR
Launch vehicle
Mass (kg)
RCS (m²)

Purposes: comms

External: N2YO · Heavens-Above · Gunter

§ Orbital elements

Epoch: 2026-05-25T02:55:33.443040Z

Period
92.99 min
Inclination
53.1506°
Eccentricity
0.0001409
Mean motion
15.48503446 rev/d
Perigee alt
420.1 km
Apogee alt
422.1 km
Semi-major
6,799.2 km
B*
1.1639e-3
RAAN
307.3990°
Arg perigee
287.5072°
Mean anomaly
72.5782°
Rev number
35,217

§ Raw data

STARLINK-10901 44968U 20001BG  26145.12191485  .00062993  00000+0  11639-2 0  99932 44968  53.1506 307.3990 0001409 287.5072  72.5782 15.48503446352178

JSON: /api/v1/satellites/44968 · /tle

For live sub-satellite position, see the globe view (requires WebGL).

§ Visibility from observer

Set your observer location to see the next 7 days of passes ≥ 10°. The values pass through the URL so the page stays shareable.

No JS? Fill the form by hand. The geolocation button needs JavaScript.